FW6222 Weather Reports


time (UTC)temp
C
wind
direction
speed
KPH
gust
KPH
rain 1hr
cm
rain 24hr
cm
rain mn
cm
humidity
%
barometer
mb
20260510204004 18 182 6.4 12.9 0.00 0.03 0.03 51 1022.5
20260510203504 18 156 4.8 11.3 0.00 0.03 0.03 52 1022.6
20260510203004 18 183 4.8 11.3 0.00 0.03 0.03 51 1022.6
20260510202503 18 202 3.2 11.3 0.00 0.03 0.03 49 1022.9
20260510202003 19 178 1.6 8.0 0.00 0.03 0.03 49 1022.8
20260510201716 19 173 1.6 8.0 0.00 0.03 0.03 49 1022.9
20260510201003 18 115 3.2 9.7 0.00 0.03 0.03 52 1022.9
20260510200712 18 112 4.8 12.9 0.00 0.03 0.03 53 1022.8
20260510200215 18 114 6.4 16.1 0.00 0.03 0.03 52 1022.9
20260510195503 18 190 6.4 12.9 0.00 0.03 0.03 52 1022.9
20260510195217 18 173 6.4 12.9 0.00 0.03 0.03 53 1022.9
20260510194503 17 131 4.8 11.3 0.00 0.03 0.03 55 1023.1
20260510194004 17 213 4.8 11.3 0.00 0.03 0.03 56 1023.1
20260510193503 17 174 6.4 14.5 0.00 0.03 0.03 56 1023.1
20260510193003 17 132 6.4 14.5 0.00 0.03 0.03 60 1023.2
20260510192504 16 124 6.4 12.9 0.00 0.03 0.03 58 1023.2
20260510192004 16 141 6.4 12.9 0.00 0.03 0.03 59 1023.2
20260510191504 16 130 6.4 14.5 0.00 0.03 0.03 61 1023.3
20260510191003 16 121 6.4 16.1 0.00 0.03 0.03 61 1023.3
20260510190504 16 143 6.4 16.1 0.00 0.03 0.03 64 1023.4
20260510190009 16 143 6.4 12.9 0.00 0.03 0.03 61 1023.6
20260510185504 15 123 4.8 11.3 0.00 0.03 0.03 64 1023.7
20260510185003 15 121 6.4 17.7 0.00 0.03 0.03 67 1023.7
20260510184504 15 108 6.4 17.7 0.00 0.03 0.03 67 1023.7
20260510184003 15 104 6.4 16.1 0.00 0.03 0.03 68 1023.8
20260510183503 15 109 6.4 11.3 0.00 0.03 0.03 68 1023.8
20260510183213 15 107 6.4 11.3 0.00 0.03 0.03 69 1023.8
20260510182503 15 131 6.4 14.5 0.00 0.03 0.03 68 1023.9
20260510182003 15 134 6.4 14.5 0.00 0.03 0.03 67 1023.9
20260510181504 15 114 8.0 17.7 0.00 0.03 0.03 68 1023.9
20260510181215 15 108 6.4 17.7 0.00 0.03 0.03 69 1024.0
20260510180719 14 103 8.0 17.7 0.00 0.03 0.03 68 1023.9
20260510180004 15 110 6.4 16.1 0.00 0.03 0.03 68 1023.9
20260510175504 15 110 4.8 9.7 0.00 0.03 0.03 67 1024.0
20260510175013 14 92 4.8 11.3 0.00 0.03 0.03 67 1023.9
20260510174503 14 88 6.4 11.3 0.00 0.03 0.03 66 1024.0
20260510174004 14 82 6.4 12.9 0.00 0.03 0.03 67 1023.9
20260510173504 14 74 6.4 12.9 0.00 0.03 0.03 69 1023.9
20260510173003 13 83 6.4 12.9 0.00 0.03 0.03 68 1023.9
20260510172503 14 85 6.4 14.5 0.00 0.03 0.03 68 1023.7
20260510172004 14 82 6.4 14.5 0.00 0.03 0.03 71 1023.9
20260510171504 13 85 8.0 12.9 0.00 0.03 0.03 70 1023.7
20260510171003 13 76 6.4 12.9 0.00 0.03 0.03 70 1023.8
20260510170503 13 83 6.4 12.9 0.00 0.03 0.03 69 1023.8
20260510170004 13 85 6.4 12.9 0.00 0.03 0.03 71 1023.8
20260510165715 13 67 6.4 12.9 0.00 0.03 0.03 71 1023.7
20260510165003 13 75 4.8 11.3 0.00 0.03 0.03 72 1023.8
20260510164503 13 85 4.8 12.9 0.00 0.03 0.03 73 1023.8
20260510164219 13 79 4.8 12.9 0.00 0.03 0.03 73 1023.9
20260510163717 13 86 6.4 12.9 0.00 0.03 0.03 74 1023.8
20260510163003 13 88 4.8 9.7 0.00 0.03 0.03 73 1023.8
20260510162503 13 86 3.2 9.7 0.00 0.03 0.03 73 1023.8
20260510162004 13 91 4.8 11.3 0.00 0.03 0.03 73 1023.8
20260510161503 13 83 4.8 11.3 0.00 0.03 0.03 73 1023.7
20260510161009 13 78 4.8 9.7 0.00 0.03 0.03 73 1023.7
20260510160715 13 81 3.2 8.0 0.00 0.03 0.03 73 1023.7
20260510160004 13 90 3.2 8.0 0.00 0.03 0.03 74 1023.6
20260510155503 12 82 4.8 8.0 0.00 0.03 0.03 76 1023.5
20260510155003 12 81 4.8 11.3 0.00 0.03 0.03 75 1023.5
20260510154504 12 73 4.8 11.3 0.00 0.03 0.03 75 1023.5
20260510154215 12 68 4.8 9.7 0.00 0.03 0.03 77 1023.5
20260510153503 12 60 4.8 8.0 0.00 0.03 0.03 77 1023.6
20260510153004 12 69 4.8 9.7 0.00 0.03 0.03 77 1023.6
20260510152503 12 63 4.8 11.3 0.00 0.03 0.03 77 1023.5
20260510152222 12 55 6.4 11.3 0.00 0.03 0.03 77 1023.5
20260510151714 12 53 6.4 11.3 0.00 0.03 0.03 78 1023.5
20260510151003 12 72 6.4 9.7 0.00 0.03 0.03 79 1023.3
20260510150513 12 65 6.4 11.3 0.00 0.03 0.03 78 1023.4
20260510150003 12 60 6.4 11.3 0.00 0.03 0.03 80 1023.4
20260510145504 12 56 6.4 9.7 0.00 0.03 0.03 80 1023.3
20260510145009 12 52 6.4 9.7 0.00 0.03 0.03 80 1023.2
20260510144503 12 55 6.4 9.7 0.00 0.03 0.03 80 1023.2
20260510144215 12 59 6.4 9.7 0.00 0.03 0.03 81 1023.2
20260510143504 12 62 3.2 8.0 0.00 0.03 0.03 80 1023.2
20260510143004 12 62 3.2 6.4 0.00 0.03 0.03 80 1023.1
20260510142714 12 62 3.2 6.4 0.00 0.03 0.03 80 1023.1
20260510142003 11 62 0.0 3.2 0.00 0.03 0.03 81 1023.1
20260510141509 11 62 1.6 4.8 0.00 0.03 0.03 81 1023.1
20260510141003 11 62 1.6 4.8 0.00 0.03 0.03 81 1023.2
20260510140503 11 62 1.6 4.8 0.00 0.03 0.03 81 1023.1
20260510140003 11 62 1.6 4.8 0.00 0.03 0.03 81 1023.1
20260510135504 11 62 0.0 3.2 0.00 0.03 0.03 82 1023.1
20260510135004 11 62 1.6 4.8 0.00 0.03 0.03 82 1023.0
20260510134504 11 62 3.2 4.8 0.00 0.03 0.03 82 1023.1
20260510134216 11 62 3.2 4.8 0.00 0.03 0.03 82 1023.1
20260510133714 11 62 3.2 4.8 0.00 0.03 0.03 82 1023.1
20260510133004 11 62 4.8 6.4 0.00 0.03 0.03 82 1023.1
20260510132508 11 62 4.8 8.0 0.00 0.03 0.03 82 1023.0
20260510132213 11 62 6.4 9.7 0.00 0.03 0.03 82 1023.0
20260510131503 11 44 6.4 9.7 0.00 0.03 0.03 82 1023.0
20260510131003 11 33 4.8 9.7 0.00 0.03 0.03 83 1022.8
20260510130503 11 33 4.8 6.4 0.00 0.03 0.03 83 1022.7
20260510130004 11 33 4.8 11.3 0.00 0.03 0.03 83 1022.6
20260510125503 11 33 4.8 11.3 0.00 0.03 0.03 83 1022.8
20260510125003 11 33 4.8 9.7 0.00 0.03 0.03 84 1022.6
20260510124503 11 33 4.8 9.7 0.00 0.03 0.03 84 1022.6
20260510124009 11 33 4.8 6.4 0.00 0.03 0.03 83 1022.6
20260510123714 11 33 4.8 8.0 0.00 0.03 0.03 83 1022.5
20260510123217 11 26 4.8 9.7 0.00 0.03 0.03 83 1022.4
20260510122503 11 18 6.4 9.7 0.00 0.03 0.03 83 1022.4
20260510122004 11 14 6.4 9.7 0.00 0.03 0.03 83 1022.2
20260510121504 11 3 6.4 9.7 0.00 0.03 0.03 83 1022.1
20260510121004 11 359 6.4 11.3 0.00 0.03 0.03 83 1021.9
20260510120503 11 3 8.0 14.5 0.00 0.03 0.03 83 1021.9
20260510120003 11 5 9.7 14.5 0.00 0.03 0.03 83 1021.9
20260510115504 11 3 8.0 14.5 0.00 0.03 0.03 83 1021.8
20260510115003 11 360 6.4 11.3 0.00 0.03 0.03 83 1021.8
20260510114504 11 347 6.4 11.3 0.00 0.03 0.03 83 1021.8
20260510114003 11 330 4.8 9.7 0.00 0.03 0.03 83 1021.7
20260510113504 11 325 4.8 8.0 0.00 0.03 0.03 83 1021.8
20260510113004 11 325 4.8 6.4 0.00 0.03 0.03 83 1021.6
20260510112503 11 325 4.8 8.0 0.00 0.03 0.03 82 1021.6
20260510112003 11 325 4.8 8.0 0.00 0.03 0.03 82 1021.8
20260510111503 11 323 4.8 9.7 0.00 0.03 0.03 82 1021.7
20260510111005 11 324 4.8 9.7 0.00 0.03 0.03 82 1021.7
20260510110713 11 325 4.8 9.7 0.00 0.03 0.03 82 1021.8
20260510110005 11 325 4.8 8.0 0.00 0.03 0.03 82 1021.8
20260510105714 11 325 4.8 8.0 0.00 0.03 0.03 83 1021.6
20260510105003 11 332 3.2 6.4 0.00 0.03 0.03 83 1021.5
20260510104715 11 338 3.2 6.4 0.00 0.03 0.03 83 1021.5
20260510104003 11 347 1.6 3.2 0.00 0.03 0.03 82 1021.5
20260510103503 11 347 1.6 4.8 0.00 0.03 0.03 81 1021.3
20260510103004 11 347 3.2 6.4 0.00 0.03 0.03 82 1021.3
20260510102504 11 358 3.2 8.0 0.00 0.03 0.03 82 1021.0
20260510102004 11 11 1.6 8.0 0.00 0.03 0.03 83 1021.1
20260510101503 11 0 0.0 0.0 0.00 0.03 0.03 84 1020.9
20260510101004 11 0 0.0 0.0 0.00 0.03 0.03 83 1021.0
20260510100503 11 0 0.0 0.0 0.00 0.03 0.03 83 1020.9
20260510100004 11 0 0.0 0.0 0.00 0.03 0.03 82 1021.0
20260510095504 11 0 0.0 0.0 0.00 0.03 0.03 83 1021.0
20260510095004 11 0 0.0 0.0 0.00 0.03 0.03 83 1021.0
20260510094503 11 29 0.0 1.6 0.00 0.03 0.03 82 1021.0
20260510094005 11 29 0.0 1.6 0.00 0.03 0.03 82 1020.9
20260510093503 11 29 0.0 1.6 0.00 0.03 0.03 81 1020.9
20260510093004 11 29 0.0 1.6 0.00 0.03 0.03 81 1020.8
20260510092503 11 29 0.0 1.6 0.00 0.03 0.03 81 1020.7
20260510092003 11 29 0.0 1.6 0.00 0.03 0.03 80 1020.7
20260510091504 11 29 0.0 1.6 0.00 0.03 0.03 79 1020.8
20260510091216 11 29 0.0 1.6 0.00 0.03 0.03 80 1020.7
20260510090503 11 29 1.6 4.8 0.00 0.03 0.03 79 1020.6
20260510090003 11 29 3.2 8.0 0.00 0.03 0.03 79 1020.5
20260510085504 11 29 4.8 8.0 0.00 0.03 0.03 79 1020.5
20260510085003 11 31 4.8 8.0 0.00 0.03 0.03 78 1020.3
20260510084509 11 35 4.8 8.0 0.00 0.03 0.03 78 1020.3
20260510084004 11 44 4.8 8.0 0.00 0.03 0.03 78 1020.3
20260510083503 11 53 4.8 9.7 0.00 0.03 0.03 78 1020.1
20260510083003 11 60 4.8 9.7 0.00 0.03 0.03 78 1019.9
20260510082504 11 72 3.2 9.7 0.00 0.03 0.03 78 1019.9
20260510082004 11 75 4.8 9.7 0.00 0.03 0.03 78 1019.7
20260510081504 11 76 4.8 11.3 0.00 0.03 0.03 78 1019.5
20260510081003 11 76 4.8 11.3 0.00 0.03 0.03 78 1019.5
20260510080504 11 70 6.4 11.3 0.00 0.03 0.03 78 1019.4
20260510080003 11 75 8.0 17.7 0.00 0.03 0.03 79 1019.4
20260510075503 11 78 11.3 17.7 0.03 0.03 0.03 79 1019.3
20260510075004 11 77 9.7 17.7 0.03 0.03 0.03 81 1019.3
20260510074503 11 79 8.0 17.7 0.03 0.03 0.03 82 1019.3
20260510074003 10 80 8.0 14.5 0.03 0.03 0.03 85 1019.3
20260510073504 10 70 8.0 12.9 0.03 0.03 0.03 88 1019.2
20260510073004 10 76 12.9 25.7 0.03 0.03 0.03 89 1019.3
20260510072503 10 81 14.5 25.7 0.03 0.03 0.03 90 1019.1
20260510072004 10 74 14.5 27.4 0.03 0.03 0.03 90 1018.9
20260510071504 10 71 20.9 37.0 0.03 0.03 0.03 90 1018.9
20260510071009 10 70 24.1 37.0 0.03 0.03 0.03 89 1019.0
20260510070715 10 68 24.1 35.4 0.03 0.03 0.03 89 1019.1
20260510070004 10 71 20.9 35.4 0.03 0.03 0.03 87 1019.2
20260510065503 10 69 20.9 35.4 0.00 0.00 0.00 85 1019.0
20260510065214 11 66 22.5 35.4 0.00 0.00 0.00 81 1019.0
20260510064504 12 66 25.7 38.6 0.00 0.00 0.00 68 1018.9
20260510064004 12 62 25.7 41.8 0.00 0.00 0.00 67 1018.9
20260510063503 12 61 25.7 41.8 0.00 0.00 0.00 66 1018.9
20260510063004 12 60 25.7 37.0 0.00 0.00 0.00 64 1018.8
20260510062503 12 56 27.4 38.6 0.00 0.00 0.00 63 1018.7
20260510062003 12 55 25.7 38.6 0.00 0.00 0.00 61 1018.7
20260510061503 12 54 24.1 46.7 0.00 0.00 0.00 61 1018.7
20260510061004 13 51 29.0 46.7 0.00 0.00 0.00 61 1018.6
20260510060504 13 48 29.0 41.8 0.00 0.00 0.00 61 1018.4
20260510060003 13 51 29.0 45.1 0.00 0.00 0.00 61 1018.1
20260510055504 13 56 32.2 45.1 0.00 0.00 0.00 60 1017.9
20260510055004 13 58 35.4 53.1 0.00 0.00 0.00 59 1017.5
20260510054504 13 57 33.8 53.1 0.00 0.00 0.00 59 1017.2
20260510054003 13 54 33.8 54.7 0.00 0.00 0.00 59 1017.2
20260510053504 13 52 35.4 54.7 0.00 0.00 0.00 60 1017.0
20260510053004 13 52 30.6 53.1 0.00 0.00 0.00 59 1017.1
20260510052503 14 52 30.6 45.1 0.00 0.00 0.00 58 1016.8
20260510052003 15 54 30.6 45.1 0.00 0.00 0.00 53 1016.5
20260510051504 17 54 29.0 41.8 0.00 0.00 0.00 51 1016.1
20260510051214 17 52 29.0 41.8 0.00 0.00 0.00 48 1015.9
20260510050508 17 41 25.7 41.8 0.00 0.00 0.00 47 1015.6
20260510050004 17 30 24.1 41.8 0.00 0.00 0.00 46 1015.9
20260510045712 17 30 22.5 32.2 0.00 0.00 0.00 46 1016.0
20260510045004 17 48 17.7 32.2 0.00 0.00 0.00 47 1015.3
20260510044714 17 56 14.5 24.1 0.00 0.00 0.00 47 1014.6
20260510044003 16 63 8.0 16.1 0.00 0.00 0.00 47 1014.1
20260510043504 16 62 4.8 16.1 0.00 0.00 0.00 47 1013.8
20260510043222 16 59 4.8 9.7 0.00 0.00 0.00 47 1013.6
20260510042503 15 52 4.8 6.4 0.00 0.00 0.00 47 1013.2
20260510042004 15 42 6.4 9.7 0.00 0.00 0.00 47 1013.1
20260510041504 16 21 4.8 9.7 0.00 0.00 0.00 46 1012.9
20260510041003 16 319 1.6 4.8 0.00 0.00 0.00 43 1012.7
20260510040504 16 273 0.0 1.6 0.00 0.00 0.00 42 1012.6
20260510040004 16 273 0.0 1.6 0.00 0.00 0.00 41 1012.4
20260510035504 16 298 0.0 3.2 0.00 0.00 0.00 40 1012.4
20260510035003 17 13 1.6 3.2 0.00 0.00 0.00 38 1012.3
20260510034508 17 19 3.2 6.4 0.00 0.00 0.00 38 1012.3
20260510034004 18 17 3.2 8.0 0.00 0.00 0.00 37 1012.2
20260510033504 18 35 3.2 8.0 0.00 0.00 0.00 37 1011.9
20260510033004 19 123 0.0 3.2 0.00 0.00 0.00 36 1011.7
20260510032504 19 139 0.0 3.2 0.00 0.00 0.00 35 1011.4
20260510032003 19 131 1.6 3.2 0.00 0.00 0.00 35 1011.2
20260510031503 20 120 0.0 3.2 0.00 0.00 0.00 33 1010.9
20260510031004 20 139 0.0 3.2 0.00 0.00 0.00 33 1010.6
20260510030504 20 161 1.6 8.0 0.00 0.00 0.00 31 1010.8
20260510030004 21 202 4.8 12.9 0.00 0.00 0.00 31 1010.7
20260510025504 20 200 4.8 12.9 0.00 0.00 0.00 31 1010.6
20260510025218 20 181 3.2 11.3 0.00 0.00 0.00 32 1010.6
20260510024503 20 109 6.4 9.7 0.00 0.00 0.00 33 1010.7
20260510024004 20 98 6.4 11.3 0.00 0.00 0.00 32 1010.9
20260510023503 20 82 3.2 11.3 0.00 0.00 0.00 33 1011.0
20260510023008 20 359 3.2 6.4 0.00 0.00 0.00 32 1011.3
20260510022509 20 1 1.6 6.4 0.00 0.00 0.00 33 1011.5
20260510022004 21 106 1.6 8.0 0.00 0.00 0.00 31 1011.2
20260510021503 21 99 6.4 9.7 0.00 0.00 0.00 30 1011.0
20260510021004 21 81 8.0 11.3 0.00 0.00 0.00 30 1010.9
20260510020504 21 68 9.7 16.1 0.00 0.00 0.00 30 1010.7
20260510020004 21 67 11.3 16.1 0.00 0.00 0.00 29 1010.6
20260510015503 21 67 11.3 16.1 0.00 0.00 0.00 29 1010.6
20260510015212 21 67 9.7 16.1 0.00 0.00 0.00 29 1010.5
20260510014715 21 77 8.0 14.5 0.00 0.00 0.00 29 1010.6
20260510014003 22 72 4.8 9.7 0.00 0.00 0.00 28 1010.6
20260510013503 22 44 8.0 16.1 0.00 0.00 0.00 27 1010.6
20260510013004 22 35 11.3 17.7 0.00 0.00 0.00 26 1010.7
20260510012504 23 39 12.9 22.5 0.00 0.00 0.00 26 1010.5
20260510012215 23 44 14.5 24.1 0.00 0.00 0.00 26 1010.5
20260510011504 23 44 19.3 29.0 0.00 0.00 0.00 25 1010.3
20260510011216 23 41 19.3 29.0 0.00 0.00 0.00 25 1010.3
20260510010503 23 35 19.3 30.6 0.00 0.00 0.00 24 1010.1
20260510010009 24 40 19.3 30.6 0.00 0.00 0.00 23 1010.0
20260510005503 24 45 16.1 29.0 0.00 0.00 0.00 22 1009.8
20260510005003 24 46 16.1 22.5 0.00 0.00 0.00 21 1009.5
20260510004503 25 43 17.7 29.0 0.00 0.00 0.00 21 1009.4
20260510004214 25 42 17.7 29.0 0.00 0.00 0.00 21 1009.4
20260510003503 25 48 16.1 25.7 0.00 0.00 0.00 20 1009.3
20260510003004 25 45 16.1 24.1 0.00 0.00 0.00 20 1009.3
20260510002718 25 42 17.7 25.7 0.00 0.00 0.00 20 1009.1
20260510002003 25 35 17.7 27.4 0.00 0.00 0.00 19 1009.1
20260510001503 25 35 17.7 27.4 0.00 0.00 0.00 20 1009.1
20260510001003 26 45 19.3 30.6 0.00 0.00 0.00 20 1009.1
20260510000504 26 48 19.3 30.6 0.00 0.00 0.00 19 1008.9
20260510000004 26 39 17.7 25.7 0.00 0.00 0.00 19 1008.6
20260509235503 26 35 19.3 30.6 0.00 0.00 0.00 19 1008.6
20260509235004 26 43 17.7 30.6 0.00 0.00 0.00 19 1008.6
20260509234503 26 49 19.3 27.4 0.00 0.00 0.00 19 1008.6
20260509234004 26 50 17.7 27.4 0.00 0.00 0.00 19 1008.5
20260509233504 26 55 17.7 29.0 0.00 0.00 0.00 18 1008.4
20260509233003 26 61 19.3 30.6 0.00 0.00 0.00 19 1008.4
20260509232504 26 57 19.3 30.6 0.00 0.00 0.00 19 1008.2
20260509232004 26 53 19.3 29.0 0.00 0.00 0.00 19 1008.0
20260509231504 26 58 19.3 29.0 0.00 0.00 0.00 19 1007.9
20260509231003 26 63 17.7 27.4 0.00 0.00 0.00 18 1007.9
20260509230509 26 64 17.7 27.4 0.00 0.00 0.00 17 1007.8
20260509230004 27 64 17.7 27.4 0.00 0.00 0.00 17 1007.8
20260509225503 27 64 16.1 27.4 0.00 0.00 0.00 16 1007.7
20260509225003 28 49 14.5 25.7 0.00 0.00 0.00 15 1007.6
20260509224504 28 37 14.5 25.7 0.00 0.00 0.00 14 1007.6
20260509224004 28 40 9.7 25.7 0.00 0.00 0.00 13 1007.5
20260509223504 28 64 6.4 25.7 0.00 0.00 0.00 13 1007.5
20260509223004 28 85 8.0 19.3 0.00 0.00 0.00 13 1007.6
20260509222503 28 87 8.0 19.3 0.00 0.00 0.00 13 1007.6
20260509222003 29 89 6.4 16.1 0.00 0.00 0.00 14 1007.6
20260509221715 28 74 6.4 16.1 0.00 0.00 0.00 14 1007.5
20260509221003 28 83 8.0 32.2 0.00 0.00 0.00 13 1007.8
20260509220504 28 93 9.7 32.2 0.00 0.00 0.00 14 1007.5
20260509220004 28 81 12.9 22.5 0.00 0.00 0.00 13 1007.8
20260509215509 28 84 14.5 22.5 0.00 0.00 0.00 14 1007.8
20260509215003 28 82 14.5 22.5 0.00 0.00 0.00 14 1007.7
20260509214713 28 81 12.9 22.5 0.00 0.00 0.00 14 1007.8
20260509214004 28 49 8.0 19.3 0.00 0.00 0.00 13 1007.8
20260509213504 28 29 6.4 19.3 0.00 0.00 0.00 13 1007.9
20260509213003 28 15 6.4 16.1 0.00 0.00 0.00 13 1008.0
20260509212504 28 45 8.0 16.1 0.00 0.00 0.00 12 1008.0
20260509212218 28 59 9.7 22.5 0.00 0.00 0.00 13 1008.1
20260509211504 28 54 11.3 25.7 0.00 0.00 0.00 13 1008.2
20260509211003 28 36 12.9 25.7 0.00 0.00 0.00 12 1008.3
20260509210504 28 47 11.3 20.9 0.00 0.00 0.00 13 1008.3
20260509210004 28 68 11.3 19.3 0.00 0.00 0.00 14 1008.3
20260509205503 28 55 12.9 20.9 0.00 0.00 0.00 14 1008.5
20260509205005 28 39 11.3 20.9 0.00 0.00 0.00 13 1008.6